TimeCDT,TemperatureF,Dew PointF,Humidity,Sea Level PressureIn,VisibilityMPH,Wind Direction,Wind SpeedMPH,Gust SpeedMPH,PrecipitationIn,Events,Conditions,WindDirDegrees,DateUTC
12:53 AM,82.9,75.0,77,29.99,10.0,ESE,4.6,-,N/A,,Clear,120,2013-09-18 05:53:00
1:53 AM,82.9,75.9,79,29.99,10.0,ESE,3.5,-,N/A,,Clear,110,2013-09-18 06:53:00
2:53 AM,82.9,75.9,79,29.98,10.0,East,4.6,-,N/A,,Scattered Clouds,100,2013-09-18 07:53:00
3:53 AM,82.9,75.9,79,29.98,10.0,ESE,6.9,-,N/A,,Partly Cloudy,120,2013-09-18 08:53:00
4:53 AM,82.0,75.9,82,29.97,10.0,East,6.9,-,N/A,,Partly Cloudy,100,2013-09-18 09:53:00
5:53 AM,82.9,75.0,77,29.98,10.0,East,8.1,-,N/A,,Clear,100,2013-09-18 10:53:00
6:53 AM,81.0,77.0,88,29.99,9.0,ENE,15.0,-,N/A,,Scattered Clouds,60,2013-09-18 11:53:00
7:53 AM,82.9,75.9,79,30.00,10.0,East,13.8,-,N/A,,Scattered Clouds,90,2013-09-18 12:53:00
8:53 AM,84.9,75.9,74,30.01,10.0,East,12.7,-,N/A,,Partly Cloudy,100,2013-09-18 13:53:00
9:53 AM,86.0,75.9,72,30.02,10.0,East,16.1,-,N/A,,Mostly Cloudy,90,2013-09-18 14:53:00
10:53 AM,86.0,75.0,70,30.04,10.0,East,13.8,-,N/A,,Mostly Cloudy,90,2013-09-18 15:53:00
11:53 AM,87.1,75.9,69,30.03,10.0,East,12.7,-,N/A,,Mostly Cloudy,80,2013-09-18 16:53:00
12:53 PM,88.0,75.0,65,30.01,10.0,East,17.3,23.0,N/A,,Mostly Cloudy,90,2013-09-18 17:53:00
1:53 PM,88.0,72.0,59,29.99,10.0,ESE,15.0,-,N/A,,Scattered Clouds,110,2013-09-18 18:53:00
2:53 PM,89.1,73.0,59,29.99,10.0,East,15.0,24.2,N/A,,Scattered Clouds,100,2013-09-18 19:53:00
3:53 PM,88.0,73.0,61,29.97,10.0,East,17.3,-,N/A,,Scattered Clouds,90,2013-09-18 20:53:00
4:53 PM,86.0,75.0,70,29.97,10.0,East,18.4,25.3,N/A,,Scattered Clouds,100,2013-09-18 21:53:00
5:53 PM,84.9,75.0,72,29.97,10.0,East,19.6,25.3,N/A,,Clear,90,2013-09-18 22:53:00
6:30 PM,84.2,73.4,70,29.99,10.0,East,16.1,-,N/A,,Mostly Cloudy,100,2013-09-18 23:30:00
6:42 PM,84.2,73.4,70,29.99,10.0,East,15.0,23.0,N/A,,Mostly Cloudy,100,2013-09-18 23:42:00
6:53 PM,84.0,73.9,72,29.97,10.0,East,16.1,-,N/A,,Partly Cloudy,100,2013-09-18 23:53:00
7:53 PM,84.0,73.9,72,29.97,10.0,East,13.8,-,N/A,,Clear,100,2013-09-19 00:53:00
8:53 PM,84.0,73.9,72,29.99,10.0,East,16.1,-,N/A,,Partly Cloudy,100,2013-09-19 01:53:00
9:53 PM,84.0,73.9,72,30.00,10.0,East,12.7,-,N/A,,Partly Cloudy,100,2013-09-19 02:53:00
10:53 PM,84.0,73.9,72,30.00,10.0,East,15.0,-,N/A,,Scattered Clouds,80,2013-09-19 03:53:00
11:53 PM,84.0,73.9,72,29.98,10.0,East,12.7,-,N/A,,Partly Cloudy,100,2013-09-19 04:53:00